Culdrose, United Kingdom

1:59 PM GMT on January 17, 2018 (GMT +0000)
Culdrose Navy

Weather History for EGDR - October, 2014

Change the Weather History Date:

Tuesday, October 7, 2014

  Actual Average Record
Temperature  
Mean Temperature 52 °F -  
Max Temperature 58 °F 55 °F 65 °F (2013)
Min Temperature 45 °F 47 °F 41 °F (2004)
Degree Days  
Heating Degree Days 14    
Growing Degree Days 2 (Base 50)    
Moisture  
Dew Point 43 °F    
Average Humidity 66    
Maximum Humidity 82    
Minimum Humidity 44    
Precipitation  
Precipitation 0.00 in - - ()
Sea Level Pressure  
Sea Level Pressure 29.48 in    
Wind  
Wind Speed 12 mph ()    
Max Wind Speed 18 mph    
Max Gust Speed 31 mph    
Visibility 8.8 miles    
Events Rain , Thunderstorm    
Averages and records for this station are not official NWS values.
T = Trace of Precipitation, MM = Missing Value Source: Averaged Metar Reports

Daily Weather History Graph

Daily Weather History Graph

Search for Another Location

Airport or City:

Trip Planner

Search our weather history database for the weather conditions in past years. The results will help you decide how hot, cold, wet, or windy it might be!

Date:

Astronomy

Oct. 07, 2014 Rise Set
Actual Time 7:30 AM BST 6:46 PM BST
Civil Twilight 6:57 AM BST 7:19 PM BST
Nautical Twilight 6:20 AM BST 7:56 PM BST
Astronomical Twilight 5:42 AM BST 8:34 PM BST
Moon 6:16 PM BST (10/7) 6:04 AM BST (10/7)
Length of Visible Light 12h 21m
Length of Day
11h 16m
Waxing Gibbous, 99% of the Moon is Illuminated
Oct 7
Waxing Gibbous
Oct 8
Full
Oct 15
Last Quarter
Oct 23
New
Oct 31
First Quarter

Hourly Weather History & Observations

Time (BST) Temp. Dew Point Humidity Pressure Visibility Wind Dir Wind Speed Gust Speed Precip Events Conditions
12:00 AM 48 °F 42 °F 72% 29.42 in 12 mi West 9.2 mph - - Thunderstorm Light Thunderstorm
12:50 AM 50.0 °F 41.0 °F 71% 29.42 in 6.2 mi West 16.1 mph - N/A   Partly Cloudy
1:00 AM 50 °F 41 °F 62% 29.42 in 12 mi West 16.1 mph - -   Partly Cloudy
1:50 AM 48.2 °F 42.8 °F 82% 29.42 in 6.2 mi West 9.2 mph - N/A   Haze
2:00 AM 48 °F 43 °F 75% 29.42 in 10 mi West 9.2 mph - -   Haze
2:50 AM 48.2 °F 42.8 °F 82% 29.42 in 6.2 mi West 9.2 mph - N/A   Haze
3:00 AM 48 °F 43 °F 77% 29.42 in 11 mi West 9.2 mph - - Rain Light Rain Showers
3:50 AM 50.0 °F 41.0 °F 71% 29.39 in 6.2 mi West 12.7 mph - N/A   Haze
4:00 AM 50 °F 42 °F 64% 29.41 in 11 mi West 12.7 mph - -   Haze
4:50 AM 50.0 °F 41.0 °F 71% 29.39 in 6.2 mi West 11.5 mph - N/A   Partly Cloudy
5:00 AM 51 °F 41 °F 60% 29.41 in 12 mi West 11.5 mph - -   Scattered Clouds
5:50 AM 50.0 °F 41.0 °F 71% 29.42 in 6.2 mi West 11.5 mph - N/A   Haze
6:00 AM 51 °F 41 °F 59% 29.42 in 11 mi West 11.5 mph - -   Haze
6:50 AM 51.8 °F 41.0 °F 67% 29.42 in 6.2 mi West 11.5 mph - N/A   Partly Cloudy
7:00 AM 52 °F 40 °F 54% 29.43 in 11 mi West 11.5 mph - -   Scattered Clouds
7:50 AM 48.2 °F 42.8 °F 82% 29.42 in 6.2 mi West 6.9 mph - N/A   Mostly Cloudy
8:00 AM 48 °F 42 °F 72% 29.44 in 11 mi West 6.9 mph - -   Partly Cloudy
8:50 AM 51.8 °F 42.8 °F 71% 29.44 in 6.2 mi West 18.4 mph 31.1 mph N/A   Scattered Clouds
9:00 AM 51 °F 43 °F 65% 29.46 in 7 mi West 18.4 mph - - Rain Light Rain Showers
9:50 AM 51.8 °F 42.8 °F 71% 29.44 in 6.2 mi West 11.5 mph - N/A Rain Light Rain Showers
10:00 AM 52 °F 43 °F 62% 29.47 in 10 mi West 11.5 mph - - Rain Light Rain Showers
10:50 AM 51.8 °F 42.8 °F 71% 29.47 in 6.2 mi WSW 16.1 mph 31.1 mph N/A   Mostly Cloudy
11:00 AM 52 °F 43 °F 63% 29.49 in 11 mi WSW 16.1 mph - - Rain Light Rain Showers
11:50 AM 53.6 °F 42.8 °F 67% 29.47 in 6.2 mi SW 17.3 mph 29.9 mph N/A   Partly Cloudy
12:00 PM 54 °F 42 °F 53% 29.50 in 12 mi SW 17.3 mph - -   Partly Cloudy
12:50 PM 55.4 °F 44.6 °F 67% 29.50 in 6.2 mi WSW 11.5 mph 25.3 mph N/A   Scattered Clouds
1:00 PM 55 °F 44 °F 57% 29.51 in 16 mi WSW 11.5 mph - -   Partly Cloudy
1:50 PM 57.2 °F 41.0 °F 55% 29.50 in 6.2 mi WSW 13.8 mph 28.8 mph N/A   Partly Cloudy
2:00 PM 57 °F 41 °F 45% 29.52 in 16 mi WSW 13.8 mph - -   Scattered Clouds
2:50 PM 57.2 °F 44.6 °F 63% 29.50 in 6.2 mi WSW 12.7 mph 24.2 mph N/A   Partly Cloudy
3:00 PM 57 °F 44 °F 51% 29.52 in 14 mi WSW 12.7 mph - -   Partly Cloudy
3:50 PM 57.2 °F 42.8 °F 59% 29.53 in 6.2 mi SW 16.1 mph 27.6 mph N/A   Scattered Clouds
4:00 PM 58 °F 42 °F 44% 29.53 in 14 mi SW 16.1 mph - -   Partly Cloudy
4:50 PM 57.2 °F 44.6 °F 63% 29.53 in 6.2 mi SW 16.1 mph 27.6 mph N/A   Partly Cloudy
5:00 PM 57 °F 44 °F 52% 29.54 in 12 mi SW 16.1 mph - -   Scattered Clouds
5:50 PM 55.4 °F 42.8 °F 63% 29.53 in 6.2 mi SW 13.8 mph - N/A   Scattered Clouds
6:00 PM 56 °F 43 °F 51% 29.54 in 12 mi SW 13.8 mph - -   Partly Cloudy
6:50 PM 55.4 °F 42.8 °F 63% 29.53 in 6.2 mi SW 16.1 mph - N/A   Mostly Cloudy
7:00 PM 55 °F 43 °F 55% 29.54 in 11 mi SW 16.1 mph - -   Partly Cloudy
7:50 PM 55.4 °F 44.6 °F 67% 29.53 in 6.2 mi SSW 16.1 mph - N/A   Mostly Cloudy
8:00 PM 55 °F 44 °F 56% 29.55 in 10 mi SSW 16.1 mph - -   Partly Cloudy
8:50 PM 53.6 °F 46.4 °F 77% 29.53 in 6.2 mi South 10.4 mph - N/A   Haze
9:00 PM 53 °F 46 °F 69% 29.54 in 11 mi South 10.4 mph - -   Haze
9:50 PM 53.6 °F 46.4 °F 77% 29.50 in 6.2 mi South 15.0 mph 26.5 mph N/A   Overcast
10:00 PM 54 °F 46 °F 65% 29.53 in 7 mi South 15.0 mph - - Rain Light Rain Showers
10:50 PM 51.8 °F 46.4 °F 82% 29.50 in 6.2 mi South 9.2 mph - N/A   Haze
11:00 PM 53 °F 46 °F 69% 29.52 in 11 mi South 9.2 mph - -   Haze
11:50 PM 55.4 °F 50.0 °F 82% 29.47 in 6.2 mi South 10.4 mph - N/A Rain Light Rain Showers